Regional Weather Roundup
Issued by NWS

Home | Current Version | Previous Version | Graphics & Text | Print | Product List | Glossary On
Versions: 1 2 3 4 5 6 7 8 9 10 11 12 13 14 15 16 17 18 19 20 21 22 23 24 25 26 27 28 29 30 31 32 33 34 35 36 37 38 39 40 41 42 43 44 45 46 47 48 49 50
000
ASUS45 KTFX 250410
RWRMT
MONTANA REGIONAL WEATHER ROUNDUP
NATIONAL WEATHER SERVICE GREAT FALLS MT
1000 PM MDT SUN JUL 24 2016

NOTE: "FAIR" INDICATES FEW OR NO CLOUDS BELOW 12000 FEET WITH NO
SIGNIFICANT WEATHER AND/OR OBSTRUCTIONS TO VISIBILITY.

MTZ001>007-043-250500-
WEST OF THE DIVIDE

CITY           SKY/WX    TMP DP  RH WIND       PRES   REMARKS
KALISPELL      CLEAR     64  53  67 NE9       30.02R
MISSOULA       CLEAR     75  45  34 NW6       30.03R
BUTTE          CLEAR     68  38  33 E3        30.16R
MULLAN PASS    CLEAR     60  44  55 NW6       30.22R
ANACONDA         N/A     66  37  34 W5        30.13R
DEER LODGE       N/A     70  39  32 CALM      30.13R
EUREKA           N/A     73  48  40 E3        30.00R
HAMILTON         N/A     66  52  59 CALM      30.05R
LIBBY            N/A     70  48  46 SE3       30.02R
PLAINS           N/A     77  49  37 CALM      30.02R
RONAN            N/A     66  53  63 N3        30.08R
THOMPSON FALLS   N/A     76  51  41 SW3       30.05R
$$

MTZ008-052>055-250500-
SOUTHWEST MONTANA

CITY           SKY/WX    TMP DP  RH WIND       PRES   REMARKS
BOZEMAN        CLEAR     65  48  54 SE7       30.07R
DILLON         CLEAR     72  37  28 SW6       30.09R
W YELLOWSTONE  CLEAR     59  27  29 CALM      30.26R
ENNIS          CLEAR     68  34  28 CALM      30.17R
THREE FORKS      N/A     65   4   9 CALM      30.06R
TWIN BRIDGES     N/A     70  32  24 CALM      30.07R
$$

MTZ009-010-012-014-046-048-049-054-250500-
EAST SLOPES AND CENTRAL MONTANA

CITY           SKY/WX    TMP DP  RH WIND       PRES   REMARKS
CUT BANK         N/A     65  47  52 W10       30.04R
GREAT FALLS    CLEAR     74  38  27 E6        30.01R
MALMSTROM AFB  CLEAR     67  46  46 SE14      30.01R
HELENA         CLEAR     77  36  22 W5        30.04R
CHOTEAU          N/A     72  43  35 NW8       30.06R
CONRAD           N/A     71  50  47 W7        30.06R
$$

MTZ011-013-016-021-045-047-050-051-250500-
NORTH CENTRAL MONTANA

CITY           SKY/WX    TMP DP  RH WIND       PRES   REMARKS
HAVRE          CLEAR     69  49  48 MISG      29.96R
LEWISTOWN      CLEAR     66  49  54 SE6       30.08R
N BAR RANCH      N/A     64  43  45 SW7       30.13R
CHINOOK          N/A     70  48  46 CALM      29.97R
$$

MTZ017>020-022>027-061-062-250500-
NORTHEAST MONTANA

CITY           SKY/WX    TMP DP  RH WIND       PRES   REMARKS
GLASGOW        CLEAR     68  53  58 NE9       29.98R
JORDAN           N/A     70  43  37 NE6       29.99R
SIDNEY         CLEAR     72  56  57 CALM      29.98R
WOLF POINT     CLEAR     71  57  61 CALM      29.98R
PLENTYWOOD       N/A     66  59  77 NE8       30.01R
POPLAR           N/A     73  54  49 NE8       29.98R
SCOBEY           N/A     61  49  64 SW1       30.01R
$$

MTZ028>42-056>058-250500-
SOUTHCENTRAL AND SOUTHEAST MONTANA

CITY           SKY/WX    TMP DP  RH WIND       PRES   REMARKS
BAKER          CLEAR     69  50  50 SE8       30.04R
BILLINGS       CLEAR     80  39  23 NE6       30.03R
LIVINGSTON     CLEAR     69  34  27 S9        30.08R
MILES CITY     CLEAR     78  44  29 NE8       29.99R
EKALAKA          N/A     76  42  29 SE9       30.04R
FORSYTH          N/A     75  45  33 CALM      29.99R
LAUREL           N/A     78  39  24 CALM      30.02R
ROUNDUP          N/A     73  42  32 N5        29.96R
$$

REGIONAL REPORTS...DAKOTAS

CITY           SKY/WX    TMP DP  RH WIND       PRES   REMARKS
WILLISTON      CLEAR     68  59  73 N3        29.99R
MINOT          CLEAR     70  59  68 E3        30.00R
DICKINSON      CLEAR     64  53  67 SE8       30.03R
CROSBY           N/A     61  61 100 SE6       30.03R
WATFORD CITY     N/A    N/A N/A N/A MISG        N/A
BISMARCK       CLEAR     65  61  87 SE7       30.04R
GRAND FORKS    CLEAR     66  60  81 W7        29.94S
FARGO          CLEAR     68  60  75 W7        29.98R
BUFFALO SD       N/A     73  46  38 SE12      30.00R
RAPID CITY     CLEAR     69  50  50 S6        30.11R
$$

REGIONAL REPORTS...WYOMING/IDAHO/WASHINGTON

CITY           SKY/WX    TMP DP  RH WIND       PRES   REMARKS
GILLETTE       CLEAR     73  42  32 S10       30.10R
SHERIDAN       CLEAR     68  48  48 CALM      30.07R
BUFFALO WY     CLEAR     70  40  33 W7        30.15R
CODY           CLEAR     73  36  25 W5        30.13R
YELLOWSTONE LA   N/A     52  32  46 CALM      30.37R
IDAHO FALLS    CLEAR     66  48  52 CALM      30.10R
SALMON         CLEAR     72  39  30 CALM      29.99R
BOISE          CLEAR     80  40  23 CALM      29.96S
SPOKANE        CLEAR     80  43  26 E5        30.01S
$$

REGIONAL REPORTS...ALBERTA

CITY           SKY/WX    TMP DP  RH WIND       PRES   REMARKS
EDMONTON       PTCLDY    66  55  68 W5        29.93R
CALGARY        PTCLDY    72  54  53 SW3       29.98R
LETHBRIDGE     PTCLDY    66  55  68 SW9       29.96R
MEDICINE HAT   CLEAR     72  57  60 S2        29.94R
WATERTON GATE    N/A     63  46  55 SW6         N/A
MILK RIVER       N/A     64  50  59 NE7         N/A
$$

REGIONAL REPORTS...SASKATCHEWAN

CITY           SKY/WX    TMP DP  RH WIND       PRES   REMARKS
SWIFT CURRENT  CLEAR     64  61  88 SE8       29.98R
REGINA         CLEAR     63  55  77 S6        29.98R
SASKATOON      PTCLDY    68  61  77 SW9       29.92R
CYPRESS HILLS    N/A     63  48  59 E5          N/A
VAL MARIE        N/A     59  54  82 CALM        N/A
ROCKGLEN         N/A     64  57  77 E2          N/A
$$



USA.gov is the U.S. government's official web portal to all federal, state and local government web resources and services.